Location: Marigot
(18.0706°N, 63.0847°W)
Time: 07:52:03
(UTC+00:00)

Daily predictions for brighter satellites

Satellite Brightness Start Highest point End
(mag) Time Altitude Azimuth Time Altitude Azimuth Time Altitude Azimuth
CZ-2C R/B 3.8 22:15:26 10° SE 22:19:47 31° ENE 22:24:20 10° NNE
FUSE 4.1 22:17:47 10° WNW 22:23:04 61° NNE 22:28:18 10° E
ATLAS 3B R/B 3.1 22:16:21 10° N 22:23:09 45° ENE 22:30:07 10° SE
COSMO-SKYMED 1 3.5 22:20:47 10° N 22:25:00 52° WNW 22:29:12 10° SSW
Cosmos 1939 Rocket 2.9 22:24:11 10° SSE 22:28:18 75° E 22:32:25 10° N
Cosmos 1703 4.5 22:27:57 10° SE 22:31:00 22° E 22:34:02 10° NE
PSLV R/B 4.0 22:27:43 10° NNE 22:31:56 86° ESE 22:36:07 10° S
Cosmos 1603 3.8 22:26:55 10° N 22:32:30 54° ENE 22:38:05 10° SSE
H-2A R/B 3.0 22:30:03 10° ESE 22:33:45 22° ENE 22:37:28 10° NNE
CZ-4 R/B 2.3 22:33:21 10° SE 22:36:57 28° ENE 22:40:31 10° NNE
SWIFT 2.5 22:33:12 10° W 22:37:26 64° N 22:41:02 14° ENE
Cosmos 2279 Rocket 4.0 22:31:14 10° N 22:37:29 79° E 22:43:43 10° S
SAR-Lupe-4 3.9 22:35:28 10° N 22:39:00 69° WNW 22:42:32 10° SSW
Cosmos 1602 Rocket 4.3 22:37:53 10° SSE 22:41:37 29° E 22:45:22 10° NNE
DMSP B5D1-3 4.5 22:38:08 10° NNE 22:43:12 68° ESE 22:48:16 10° S
YAOGAN 1 3.3 22:41:03 10° SE 22:44:49 30° ENE 22:48:35 10° NNE
GPS 2-12 Rocket1 2.9 22:44:17 10° W 22:48:44 89° NNW 22:51:52 19° E
Cosmos 1340 3.6 22:45:53 10° SSE 22:49:02 26° E 22:50:56 18° NE
Cosmos 1898 Rocket 3.9 22:44:23 10° S 22:49:22 42° E 22:54:20 10° NNE
Meteor 2-10 Rocket 3.7 22:46:44 10° N 22:51:56 51° E 22:56:55 10° SSE
Cosmos 1455 3.3 22:49:47 14° NE 22:52:08 22° E 22:55:11 10° SE
Cosmos 44 3.1 22:50:35 10° SSW 22:55:01 85° ESE 22:59:40 11° NNE
GPS 2-14 Rocket1 2.9 22:51:40 10° W 22:55:44 58° N 22:58:03 24° ENE
Palapa 6 Rocket 3.4 22:54:40 10° WNW 23:00:11 72° SSW 23:03:37 17° ESE
NOSS 2-1 (C) 3.7 22:56:35 10° SW 23:00:40 57° WNW 23:03:41 13° NNE
Cosmos 1092 Rocket 3.9 22:54:56 10° S 23:01:07 67° E 23:07:16 10° NNE
NOSS 2-1 (D) 4.1 23:02:34 10° SW 23:06:31 45° WNW 23:09:25 13° N
Cosmos 773 Rocket 3.9 23:03:03 10° NNW 23:08:11 86° ENE 23:13:18 10° SSE
SJ 16-02 3.1 23:04:32 10° SW 23:08:30 33° WNW 23:12:28 10° N
Milstar 3 3.7 23:01:09 10° SW 23:10:31 45° SSE 23:14:30 24° E
ARGOS 3.5 23:06:14 10° SE 23:11:11 40° ENE 23:16:08 10° N
Hubble Space Telescope 2.3 23:10:34 10° WNW 23:13:54 23° N 23:15:02 21° NNE
Helios 1A Rocket 2.9 23:10:38 10° SSE 23:14:39 57° ENE 23:18:42 10° N
CSL-04 Debris 4.4 23:10:55 10° SSE 23:16:02 45° ENE 23:21:09 10° N
DMSP B5D2-2 4.0 23:23:20 22° NNE 23:26:43 68° ESE 23:31:56 10° S
Cosmos 1943 4.3 23:21:40 10° NNW 23:27:02 46° WSW 23:32:21 10° S
Cosmos 1937 Rocket 3.4 23:22:12 10° S 23:27:26 78° ESE 23:30:09 29° NNE
Cosmos 2058 Rocket 4.1 23:23:06 10° NNW 23:27:26 48° W 23:31:46 10° SSW
Meteor 1-11 4.2 23:22:33 10° S 23:28:14 61° E 23:31:14 28° NNE
ARIANE 5 R/B 4.0 23:12:43 10° WSW 23:34:12 33° SSW 23:37:57 17° SE
CZ-2C R/B 3.1 23:30:21 10° N 23:35:51 63° WNW 23:41:24 10° SSW
ATLAS 2A CENTAUR R/B 4.3 22:40:45 10° SW 23:36:04 65° SSE 23:42:07 34° E
Cosmos 1538 Rocket 3.8 23:30:55 10° NNW 23:36:05 86° ENE 23:41:16 10° SSE
EPKM 4.2 23:10:48 10° W 23:36:35 57° N 23:38:49 40° NE
CZ-3 Stage 3 3.2 23:21:49 10° WSW 23:39:13 86° NNW 23:40:17 56° ENE
Delta 168 3.1 23:37:05 10° W 23:39:48 51° SW 23:39:48 51° SW
Iridium 4 Rocket 3.3 23:35:17 10° N 23:40:43 80° E 23:45:40 10° S
BREEZE-M DEB (TANK) 3.0 23:40:03 10° SW 23:43:20 43° SW 23:43:20 43° SW
Okean-O 4.3 23:43:53 10° SSW 23:47:53 34° W 23:51:54 10° NW
Cosmos 2278 Rocket 2.0 23:46:24 10° SSW 23:52:03 78° ESE 23:52:12 77° E
